BAW773 ESSA-EGLL

Flight info

Callsign BAW773
Flight time 2h 17m
Altitude 36000
Route ARS6G ARS N623 BEDLA N866 LAPSI DCT UPGAS DCT TIPAN DCT WECOW DCT BINBO DCT AKOKO N866 BUKUT P7 BARMI BARMI1H
Aircraft A21N/M-SDE3FGHIJ1LRWXYZ/SB1G1

Departure

Time 2026-05-05 20:06
Airport Stockholm-Arlanda Airport (ESSA)

Arrival

Time 2026-05-05 22:24
Airport London Heathrow Airport (EGLL)
Time Latitude Longitude Altitude Speed Heading
2026-05-05 19:40 59.64484 17.92514 140 ft 0 kts
2026-05-05 19:54 59.64476 17.92512 143 ft 4 kts
2026-05-05 19:55 59.64449 17.92503 143 ft 4 kts 13°
2026-05-05 19:55 59.64423 17.92489 143 ft 4 kts 20°
2026-05-05 19:55 59.64400 17.92467 143 ft 4 kts 33°
2026-05-05 19:55 59.64398 17.92464 143 ft 2 kts 34°
2026-05-05 20:00 59.64399 17.92474 143 ft 2 kts 72°
2026-05-05 20:00 59.64385 17.92505 143 ft 4 kts 145°
2026-05-05 20:00 59.64351 17.92515 143 ft 6 kts 181°
2026-05-05 20:01 59.64301 17.92509 143 ft 8 kts 184°
2026-05-05 20:01 59.64237 17.92500 143 ft 10 kts 181°
2026-05-05 20:01 59.64180 17.92588 143 ft 12 kts 119°
2026-05-05 20:01 59.64136 17.92748 143 ft 14 kts 117°
2026-05-05 20:02 59.64088 17.92931 143 ft 16 kts 117°
2026-05-05 20:02 59.64035 17.93133 143 ft 17 kts 117°
2026-05-05 20:02 59.63989 17.93364 143 ft 19 kts 69°
2026-05-05 20:02 59.64037 17.93617 143 ft 20 kts 68°
2026-05-05 20:03 59.64108 17.93864 143 ft 22 kts 56°
2026-05-05 20:03 59.64197 17.94116 143 ft 23 kts 55°
2026-05-05 20:03 59.64286 17.94390 143 ft 24 kts 58°
2026-05-05 20:03 59.64377 17.94677 143 ft 17 kts 58°
2026-05-05 20:04 59.64439 17.94870 143 ft 17 kts 58°
2026-05-05 20:04 59.64506 17.95082 143 ft 19 kts 58°
2026-05-05 20:04 59.64583 17.95305 143 ft 20 kts 42°
2026-05-05 20:04 59.64715 17.95417 143 ft 22 kts 10°
2026-05-05 20:05 59.64857 17.95464 143 ft 14 kts 10°
2026-05-05 20:05 59.64946 17.95552 143 ft 16 kts 68°
2026-05-05 20:05 59.64932 17.95776 144 ft 18 kts 116°
2026-05-05 20:05 59.64823 17.95877 148 ft 20 kts 198°
2026-05-05 20:06 59.64679 17.95818 148 ft 26 kts 191°
2026-05-05 20:06 59.64294 17.95665 150 ft 90 kts 189°
2026-05-05 20:06 59.63421 17.95358 163 ft 163 kts 190°
2026-05-05 20:06 59.62278 17.94935 912 ft 170 kts 190°
2026-05-05 20:07 59.61093 17.94592 1845 ft 171 kts 188°
2026-05-05 20:07 59.59919 17.94472 2648 ft 174 kts 177°
2026-05-05 20:07 59.58753 17.95521 3051 ft 200 kts 138°
2026-05-05 20:07 59.57909 17.97824 3655 ft 214 kts 127°
2026-05-05 20:08 59.56856 17.99968 4278 ft 223 kts 146°
2026-05-05 20:08 59.55432 18.00949 4967 ft 222 kts 179°
2026-05-05 20:08 59.53873 18.00720 5601 ft 230 kts 191°
2026-05-05 20:08 59.52261 18.00350 6409 ft 235 kts 191°
2026-05-05 20:09 59.50620 17.99969 7230 ft 240 kts 191°
2026-05-05 20:09 59.48992 17.99249 8074 ft 240 kts 208°
2026-05-05 20:09 59.47677 17.97332 8886 ft 236 kts 235°
2026-05-05 20:09 59.46948 17.94386 9348 ft 250 kts 262°
2026-05-05 20:10 59.46879 17.90907 9968 ft 260 kts 274°
2026-05-05 20:10 59.46969 17.87217 10399 ft 281 kts 274°
2026-05-05 20:10 59.47049 17.83208 10756 ft 305 kts 272°
2026-05-05 20:10 59.47107 17.78963 11394 ft 311 kts 272°
2026-05-05 20:11 59.47155 17.74860 11550 ft 290 kts 272°
2026-05-05 20:11 59.47195 17.70787 11707 ft 311 kts 271°
2026-05-05 20:11 59.47229 17.66446 12472 ft 320 kts 271°
2026-05-05 20:11 59.47266 17.62053 13516 ft 321 kts 271°
2026-05-05 20:12 59.47296 17.57663 14514 ft 320 kts 270°
2026-05-05 20:12 59.47320 17.53355 15541 ft 317 kts 270°
2026-05-05 20:12 59.47352 17.49045 16529 ft 315 kts 271°
2026-05-05 20:12 59.47660 17.44765 17477 ft 316 kts 279°
2026-05-05 20:13 59.48225 17.40580 18363 ft 316 kts 281°
2026-05-05 20:13 59.48820 17.36392 19051 ft 319 kts 281°
2026-05-05 20:13 59.49415 17.32159 19668 ft 323 kts 281°
2026-05-05 20:13 59.50023 17.27863 20255 ft 327 kts 281°
2026-05-05 20:14 59.50638 17.23524 20831 ft 330 kts 281°
2026-05-05 20:14 59.51245 17.19201 21387 ft 334 kts 280°
2026-05-05 20:14 59.51864 17.14701 21961 ft 338 kts 280°
2026-05-05 20:14 59.52475 17.10278 22559 ft 341 kts 281°
2026-05-05 20:15 59.53095 17.05750 23145 ft 344 kts 280°
2026-05-05 20:15 59.53714 17.01183 23662 ft 347 kts 280°
2026-05-05 20:15 59.54333 16.96575 24127 ft 349 kts 280°
2026-05-05 20:15 59.54960 16.91926 24596 ft 352 kts 280°
2026-05-05 20:16 59.55593 16.87263 25106 ft 354 kts 280°
2026-05-05 20:16 59.56233 16.82536 25565 ft 357 kts 280°
2026-05-05 20:16 59.56872 16.77785 26005 ft 359 kts 280°
2026-05-05 20:16 59.57513 16.73013 26421 ft 361 kts 280°
2026-05-05 20:17 59.58159 16.68211 26854 ft 363 kts 280°
2026-05-05 20:17 59.58754 16.63344 27265 ft 364 kts 278°
2026-05-05 20:17 59.59266 16.58416 27672 ft 367 kts 278°
2026-05-05 20:17 59.59779 16.53468 28075 ft 369 kts 278°
2026-05-05 20:18 59.60290 16.48483 28520 ft 371 kts 278°
2026-05-05 20:18 59.60789 16.43539 28915 ft 372 kts 277°
2026-05-05 20:18 59.61299 16.38438 29297 ft 374 kts 277°
2026-05-05 20:18 59.61760 16.33450 29722 ft 373 kts 275°
2026-05-05 20:19 59.61921 16.28356 30171 ft 370 kts 267°
2026-05-05 20:19 59.61650 16.23315 30524 ft 370 kts 259°
2026-05-05 20:19 59.60940 16.18438 30843 ft 372 kts 251°
2026-05-05 20:19 59.59800 16.13820 31163 ft 376 kts 243°
2026-05-05 20:20 59.58338 16.09518 31479 ft 379 kts 239°
2026-05-05 20:20 59.56800 16.05279 31816 ft 379 kts 239°
2026-05-05 20:20 59.55264 16.01038 32143 ft 380 kts 239°
2026-05-05 20:20 59.53736 15.96795 32450 ft 380 kts 239°
2026-05-05 20:21 59.52201 15.92530 32752 ft 381 kts 239°
2026-05-05 20:21 59.50666 15.88265 33051 ft 381 kts 239°
2026-05-05 20:21 59.49148 15.84051 33279 ft 382 kts 239°
2026-05-05 20:21 59.47613 15.79798 33586 ft 382 kts 238°
2026-05-05 20:22 59.46074 15.75537 33872 ft 382 kts 238°
2026-05-05 20:22 59.44529 15.71258 34123 ft 382 kts 238°
2026-05-05 20:22 59.43507 15.68437 34238 ft 383 kts 238°
2026-05-05 20:22 59.41957 15.64164 34416 ft 385 kts 238°
2026-05-05 20:23 59.40401 15.59882 34601 ft 386 kts 238°
2026-05-05 20:23 59.38842 15.55591 34781 ft 387 kts 238°
2026-05-05 20:23 59.37275 15.51287 34968 ft 387 kts 238°
2026-05-05 20:23 59.35704 15.46989 35149 ft 388 kts 238°
2026-05-05 20:24 59.34127 15.42689 35322 ft 389 kts 238°
2026-05-05 20:24 59.32540 15.38362 35494 ft 390 kts 238°
2026-05-05 20:24 59.30952 15.34042 35666 ft 391 kts 238°
2026-05-05 20:24 59.29360 15.29723 35827 ft 392 kts 238°
2026-05-05 20:25 59.27759 15.25387 35873 ft 394 kts 238°
2026-05-05 20:25 59.24514 15.16618 35919 ft 402 kts 238°
2026-05-05 20:26 59.21198 15.07687 35907 ft 409 kts 237°
2026-05-05 20:26 59.17834 14.98649 35923 ft 413 kts 237°
2026-05-05 20:27 59.14444 14.89592 35927 ft 415 kts 237°
2026-05-05 20:27 59.11033 14.80500 35926 ft 416 kts 237°
2026-05-05 20:28 59.07624 14.71453 35926 ft 418 kts 237°
2026-05-05 20:28 59.04184 14.62354 35894 ft 417 kts 237°
2026-05-05 20:29 59.00735 14.53290 35915 ft 416 kts 237°
2026-05-05 20:29 58.97301 14.44265 35923 ft 415 kts 237°
2026-05-05 20:30 58.93862 14.35280 35927 ft 415 kts 237°
2026-05-05 20:30 58.90573 14.26129 35933 ft 413 kts 241°
2026-05-05 20:31 58.87537 14.16691 35934 ft 411 kts 241°
2026-05-05 20:31 58.86054 14.12111 35928 ft 400 kts 241°
2026-05-05 20:31 58.84563 14.07539 35931 ft 403 kts 240°
2026-05-05 20:32 58.81570 13.98373 35922 ft 408 kts 240°
2026-05-05 20:32 58.78530 13.89095 35934 ft 410 kts 240°
2026-05-05 20:33 58.75461 13.79782 35937 ft 412 kts 240°
2026-05-05 20:33 58.72381 13.70462 35937 ft 413 kts 240°
2026-05-05 20:34 58.69287 13.61133 35938 ft 413 kts 240°
2026-05-05 20:34 58.66184 13.51839 35937 ft 413 kts 240°
2026-05-05 20:35 58.63073 13.42551 35939 ft 413 kts 240°
2026-05-05 20:35 58.59956 13.33273 35931 ft 413 kts 240°
2026-05-05 20:36 58.56835 13.24031 35957 ft 413 kts 240°
2026-05-05 20:36 58.53734 13.14862 35948 ft 413 kts 240°
2026-05-05 20:37 58.50600 13.05649 35942 ft 413 kts 239°
2026-05-05 20:37 58.47454 12.96450 35939 ft 413 kts 239°
2026-05-05 20:38 58.44314 12.87264 35937 ft 413 kts 239°
2026-05-05 20:38 58.41171 12.78111 35935 ft 413 kts 239°
2026-05-05 20:39 58.38007 12.68970 35913 ft 412 kts 239°
2026-05-05 20:39 58.34840 12.59842 35957 ft 412 kts 239°
2026-05-05 20:40 58.31666 12.50730 35963 ft 413 kts 239°
2026-05-05 20:40 58.28516 12.41688 35967 ft 413 kts 239°
2026-05-05 20:41 58.25335 12.32595 35964 ft 414 kts 239°
2026-05-05 20:41 58.22137 12.23515 35964 ft 414 kts 239°
2026-05-05 20:42 58.18933 12.14447 35959 ft 414 kts 239°
2026-05-05 20:42 58.15720 12.05402 35958 ft 414 kts 239°
2026-05-05 20:43 58.12506 11.96370 35960 ft 414 kts 238°
2026-05-05 20:43 58.09278 11.87343 35960 ft 414 kts 238°
2026-05-05 20:44 58.06050 11.78334 35961 ft 414 kts 238°
2026-05-05 20:44 58.02810 11.69323 35962 ft 414 kts 238°
2026-05-05 20:45 57.97962 11.55923 35964 ft 414 kts 238°
2026-05-05 20:45 57.94699 11.46960 35933 ft 414 kts 238°
2026-05-05 20:46 57.91440 11.38031 35959 ft 414 kts 238°
2026-05-05 20:46 57.88177 11.29115 35958 ft 414 kts 238°
2026-05-05 20:47 57.84906 11.20209 35959 ft 414 kts 238°
2026-05-05 20:47 57.81625 11.11314 35962 ft 414 kts 238°
2026-05-05 20:48 57.78337 11.02431 35961 ft 415 kts 238°
2026-05-05 20:48 57.75040 10.93564 35964 ft 415 kts 237°
2026-05-05 20:49 57.71751 10.84757 35928 ft 415 kts 237°
2026-05-05 20:49 57.68432 10.75907 35954 ft 415 kts 237°
2026-05-05 20:50 57.65111 10.67064 35960 ft 416 kts 237°
2026-05-05 20:50 57.61780 10.58240 35961 ft 416 kts 237°
2026-05-05 20:51 57.58439 10.49420 35961 ft 416 kts 237°
2026-05-05 20:51 57.55093 10.40613 35961 ft 416 kts 237°
2026-05-05 20:52 57.51739 10.31814 35966 ft 417 kts 237°
2026-05-05 20:52 57.48379 10.23031 35961 ft 417 kts 237°
2026-05-05 20:53 57.45009 10.14259 35962 ft 417 kts 237°
2026-05-05 20:53 57.41631 10.05489 35967 ft 418 kts 237°
2026-05-05 20:54 57.38239 9.96718 35972 ft 418 kts 236°
2026-05-05 20:54 57.34843 9.87975 35973 ft 418 kts 236°
2026-05-05 20:55 57.31457 9.79286 35980 ft 418 kts 236°
2026-05-05 20:55 57.28044 9.70562 35982 ft 418 kts 236°
2026-05-05 20:56 57.24619 9.61853 35977 ft 418 kts 236°
2026-05-05 20:56 57.21193 9.53168 35989 ft 419 kts 236°
2026-05-05 20:57 57.17756 9.44479 35987 ft 420 kts 236°
2026-05-05 20:57 57.14308 9.35801 35974 ft 420 kts 236°
2026-05-05 20:58 57.10846 9.27106 35977 ft 421 kts 236°
2026-05-05 20:58 57.07382 9.18443 35978 ft 421 kts 236°
2026-05-05 20:59 57.03907 9.09787 35957 ft 421 kts 235°
2026-05-05 20:59 57.00421 9.01130 35976 ft 421 kts 235°
2026-05-05 21:00 56.96936 8.92494 35981 ft 421 kts 235°
2026-05-05 21:00 56.93436 8.83861 35982 ft 422 kts 235°
2026-05-05 21:01 56.89958 8.75288 35986 ft 422 kts 235°
2026-05-05 21:01 56.86441 8.66678 35981 ft 422 kts 235°
2026-05-05 21:02 56.82919 8.58087 35981 ft 422 kts 235°
2026-05-05 21:02 56.79385 8.49506 35961 ft 422 kts 235°
2026-05-05 21:03 56.75855 8.40943 35984 ft 423 kts 234°
2026-05-05 21:03 56.72312 8.32396 35987 ft 423 kts 234°
2026-05-05 21:04 56.68755 8.23828 35986 ft 423 kts 234°
2026-05-05 21:04 56.65189 8.15290 36007 ft 424 kts 234°
2026-05-05 21:05 56.61640 8.06814 35995 ft 424 kts 234°
2026-05-05 21:05 56.58050 7.98275 35956 ft 424 kts 234°
2026-05-05 21:06 56.54456 7.89771 35986 ft 425 kts 234°
2026-05-05 21:06 56.50860 7.81280 35992 ft 425 kts 234°
2026-05-05 21:07 56.47268 7.72827 35997 ft 425 kts 234°
2026-05-05 21:07 56.43655 7.64351 35997 ft 426 kts 234°
2026-05-05 21:08 56.40642 7.57301 35997 ft 426 kts 234°
2026-05-05 21:08 56.37008 7.48832 35997 ft 427 kts 234°
2026-05-05 21:09 56.33366 7.40372 35981 ft 427 kts 233°
2026-05-05 21:09 56.29721 7.31912 35995 ft 428 kts 233°
2026-05-05 21:10 56.26063 7.23445 35998 ft 428 kts 233°
2026-05-05 21:10 56.22413 7.15054 35999 ft 429 kts 233°
2026-05-05 21:11 56.18735 7.06626 35999 ft 429 kts 233°
2026-05-05 21:11 56.15037 6.98191 36001 ft 430 kts 233°
2026-05-05 21:12 56.11334 6.89768 35987 ft 430 kts 233°
2026-05-05 21:12 56.07623 6.81351 36007 ft 431 kts 233°
2026-05-05 21:13 56.03898 6.72915 35999 ft 432 kts 233°
2026-05-05 21:13 56.00164 6.64499 36002 ft 432 kts 232°
2026-05-05 21:14 55.96413 6.56077 36002 ft 433 kts 232°
2026-05-05 21:14 55.92675 6.47727 35997 ft 434 kts 232°
2026-05-05 21:15 55.88900 6.39323 35998 ft 434 kts 232°
2026-05-05 21:15 55.85117 6.30910 36004 ft 435 kts 232°
2026-05-05 21:16 55.81324 6.22524 35997 ft 435 kts 232°
2026-05-05 21:16 55.77520 6.14127 36007 ft 436 kts 232°
2026-05-05 21:17 55.73712 6.05752 35996 ft 436 kts 232°
2026-05-05 21:17 55.69893 5.97393 35995 ft 436 kts 232°
2026-05-05 21:18 55.66088 5.89108 35997 ft 436 kts 232°
2026-05-05 21:18 55.62257 5.80780 35982 ft 436 kts 232°
2026-05-05 21:19 55.58425 5.72462 35992 ft 436 kts 232°
2026-05-05 21:19 55.54580 5.64153 35986 ft 437 kts 231°
2026-05-05 21:20 55.50728 5.55855 35992 ft 437 kts 231°
2026-05-05 21:20 55.46861 5.47553 35985 ft 438 kts 231°
2026-05-05 21:21 55.43004 5.39313 35984 ft 438 kts 231°
2026-05-05 21:21 55.39115 5.31041 35973 ft 438 kts 231°
2026-05-05 21:22 55.35226 5.22773 35982 ft 439 kts 231°
2026-05-05 21:22 55.31328 5.14516 35986 ft 439 kts 231°
2026-05-05 21:23 55.27426 5.06260 35986 ft 440 kts 231°
2026-05-05 21:23 55.23069 4.98752 35976 ft 442 kts 215°
2026-05-05 21:24 55.17685 4.93506 35982 ft 444 kts 210°
2026-05-05 21:24 55.12262 4.88485 35967 ft 444 kts 210°
2026-05-05 21:25 55.06781 4.83344 35977 ft 444 kts 210°
2026-05-05 21:25 55.01375 4.78279 35975 ft 445 kts 210°
2026-05-05 21:26 54.95918 4.73187 35977 ft 445 kts 210°
2026-05-05 21:26 54.90491 4.68147 35955 ft 437 kts 210°
2026-05-05 21:27 54.87843 4.65689 35966 ft 425 kts 210°
2026-05-05 21:27 54.85265 4.63300 35965 ft 414 kts 210°
2026-05-05 21:27 54.80290 4.58704 35960 ft 396 kts 210°
2026-05-05 21:28 54.75479 4.54257 35979 ft 394 kts 210°
2026-05-05 21:28 54.70561 4.49732 35991 ft 406 kts 210°
2026-05-05 21:29 54.65498 4.45093 35970 ft 417 kts 210°
2026-05-05 21:29 54.60345 4.40382 35981 ft 426 kts 210°
2026-05-05 21:30 54.55068 4.35572 35980 ft 431 kts 210°
2026-05-05 21:30 54.49747 4.30735 35978 ft 434 kts 210°
2026-05-05 21:31 54.44392 4.25882 35972 ft 436 kts 209°
2026-05-05 21:31 54.39041 4.21046 35966 ft 438 kts 209°
2026-05-05 21:32 54.33643 4.16181 35968 ft 438 kts 209°
2026-05-05 21:32 54.28367 4.11445 35965 ft 413 kts 209°
2026-05-05 21:33 54.23312 4.06912 35962 ft 408 kts 209°
2026-05-05 21:33 54.18290 4.02415 35969 ft 408 kts 209°
2026-05-05 21:34 54.13261 3.97935 35963 ft 407 kts 208°
2026-05-05 21:34 54.08236 3.93474 35967 ft 407 kts 208°
2026-05-05 21:35 54.03252 3.89049 35970 ft 406 kts 209°
2026-05-05 21:35 53.98231 3.84611 35970 ft 406 kts 208°
2026-05-05 21:36 53.93212 3.80183 35952 ft 406 kts 208°
2026-05-05 21:36 53.88186 3.75767 35964 ft 407 kts 208°
2026-05-05 21:37 53.83156 3.71359 35970 ft 407 kts 208°
2026-05-05 21:37 53.78134 3.66964 35969 ft 407 kts 208°
2026-05-05 21:38 53.73088 3.62568 35977 ft 409 kts 208°
2026-05-05 21:38 53.68051 3.58197 35955 ft 410 kts 208°
2026-05-05 21:39 53.62978 3.53799 35967 ft 409 kts 208°
2026-05-05 21:39 53.57908 3.49412 35966 ft 410 kts 208°
2026-05-05 21:40 53.52831 3.45038 35967 ft 409 kts 208°
2026-05-05 21:40 53.47752 3.40674 35965 ft 409 kts 208°
2026-05-05 21:41 53.42676 3.36319 35964 ft 409 kts 208°
2026-05-05 21:41 53.37602 3.31980 35964 ft 409 kts 208°
2026-05-05 21:42 53.32521 3.27638 35958 ft 410 kts 208°
2026-05-05 21:42 53.27437 3.23308 35956 ft 410 kts 208°
2026-05-05 21:43 53.22351 3.18993 35957 ft 410 kts 208°
2026-05-05 21:43 53.17298 3.14720 35958 ft 410 kts 207°
2026-05-05 21:44 53.12204 3.10422 35958 ft 410 kts 207°
2026-05-05 21:44 53.07096 3.06130 35799 ft 413 kts 207°
2026-05-05 21:45 53.04528 3.03972 35596 ft 413 kts 207°
2026-05-05 21:45 53.01957 3.01810 35351 ft 413 kts 207°
2026-05-05 21:45 52.99394 2.99666 35110 ft 412 kts 207°
2026-05-05 21:45 52.96837 2.97527 34862 ft 411 kts 207°
2026-05-05 21:46 52.94285 2.95391 34613 ft 409 kts 207°
2026-05-05 21:46 52.91753 2.93274 34366 ft 407 kts 206°
2026-05-05 21:46 52.89228 2.91165 34127 ft 406 kts 206°
2026-05-05 21:46 52.86713 2.89075 33872 ft 404 kts 206°
2026-05-05 21:47 52.84199 2.86994 33591 ft 403 kts 206°
2026-05-05 21:47 52.81692 2.84912 33313 ft 403 kts 206°
2026-05-05 21:47 52.79212 2.82854 33038 ft 404 kts 206°
2026-05-05 21:47 52.76702 2.80778 32766 ft 404 kts 206°
2026-05-05 21:48 52.74186 2.78704 32505 ft 404 kts 206°
2026-05-05 21:48 52.71671 2.76629 32226 ft 406 kts 206°
2026-05-05 21:48 52.69138 2.74540 31958 ft 407 kts 206°
2026-05-05 21:48 52.66606 2.72449 31695 ft 408 kts 206°
2026-05-05 21:49 52.64070 2.70359 31443 ft 409 kts 206°
2026-05-05 21:49 52.61519 2.68267 31183 ft 409 kts 206°
2026-05-05 21:49 52.58969 2.66177 30929 ft 410 kts 206°
2026-05-05 21:49 52.56426 2.64094 30562 ft 407 kts 206°
2026-05-05 21:50 52.53892 2.62020 30277 ft 407 kts 206°
2026-05-05 21:50 52.51355 2.59948 30018 ft 406 kts 206°
2026-05-05 21:50 52.46286 2.55811 29903 ft 409 kts 206°
2026-05-05 21:51 52.43738 2.53732 29719 ft 409 kts 206°
2026-05-05 21:51 52.41195 2.51666 29449 ft 407 kts 206°
2026-05-05 21:51 52.38657 2.49611 29181 ft 406 kts 206°
2026-05-05 21:51 52.36127 2.47564 28914 ft 405 kts 206°
2026-05-05 21:52 52.31129 2.43512 28349 ft 402 kts 206°
2026-05-05 21:52 52.28627 2.41493 28082 ft 401 kts 206°
2026-05-05 21:52 52.26129 2.39477 27810 ft 400 kts 206°
2026-05-05 21:53 52.23631 2.37469 27533 ft 401 kts 206°
2026-05-05 21:53 52.21132 2.35470 27271 ft 399 kts 206°
2026-05-05 21:53 52.18645 2.33476 27014 ft 398 kts 206°
2026-05-05 21:53 52.16168 2.31492 26745 ft 397 kts 206°
2026-05-05 21:54 52.13684 2.29505 26489 ft 395 kts 206°
2026-05-05 21:54 52.11278 2.27360 26230 ft 393 kts 213°
2026-05-05 21:54 52.09171 2.24536 25977 ft 393 kts 225°
2026-05-05 21:54 52.07942 2.22373 25807 ft 394 kts 228°
2026-05-05 21:55 52.06153 2.19012 25569 ft 393 kts 229°
2026-05-05 21:55 52.04383 2.15663 25317 ft 389 kts 229°
2026-05-05 21:55 52.02609 2.12322 25069 ft 390 kts 229°
2026-05-05 21:55 52.00816 2.08974 24940 ft 393 kts 228°
2026-05-05 21:56 51.99019 2.05631 24935 ft 392 kts 228°
2026-05-05 21:56 51.97216 2.02306 24942 ft 393 kts 228°
2026-05-05 21:56 51.95402 1.98960 24952 ft 394 kts 228°
2026-05-05 21:56 51.93593 1.95634 24960 ft 393 kts 227°
2026-05-05 21:57 51.91782 1.92309 24961 ft 393 kts 228°
2026-05-05 21:57 51.89976 1.88997 24960 ft 394 kts 228°
2026-05-05 21:57 51.88156 1.85674 24964 ft 393 kts 228°
2026-05-05 21:57 51.86351 1.82366 24955 ft 392 kts 228°
2026-05-05 21:58 51.84564 1.79103 24955 ft 394 kts 228°
2026-05-05 21:58 51.82748 1.75785 24965 ft 393 kts 228°
2026-05-05 21:58 51.80933 1.72475 24967 ft 392 kts 228°
2026-05-05 21:58 51.79120 1.69176 24962 ft 394 kts 227°
2026-05-05 21:59 51.77286 1.65843 24962 ft 396 kts 228°
2026-05-05 21:59 51.75647 1.62273 24955 ft 397 kts 239°
2026-05-05 21:59 51.74590 1.58189 24796 ft 391 kts 255°
2026-05-05 21:59 51.74125 1.53877 24102 ft 392 kts 263°
2026-05-05 22:00 51.73888 1.49532 23413 ft 393 kts 265°
2026-05-05 22:00 51.73664 1.45133 22698 ft 392 kts 265°
2026-05-05 22:00 51.73414 1.40767 22061 ft 388 kts 265°
2026-05-05 22:00 51.73144 1.36459 21468 ft 384 kts 264°
2026-05-05 22:01 51.72872 1.32201 20903 ft 380 kts 264°
2026-05-05 22:01 51.72593 1.27990 20347 ft 376 kts 264°
2026-05-05 22:01 51.72311 1.23820 19802 ft 372 kts 264°
2026-05-05 22:01 51.72033 1.19690 19267 ft 368 kts 264°
2026-05-05 22:02 51.71755 1.15591 18741 ft 368 kts 264°
2026-05-05 22:02 51.71471 1.11469 18206 ft 370 kts 264°
2026-05-05 22:02 51.71180 1.07331 17601 ft 372 kts 263°
2026-05-05 22:02 51.70884 1.03174 17028 ft 373 kts 264°
2026-05-05 22:03 51.70598 0.99074 16480 ft 371 kts 264°
2026-05-05 22:03 51.70310 0.94952 15949 ft 367 kts 264°
2026-05-05 22:03 51.70033 0.90902 15496 ft 359 kts 264°
2026-05-05 22:03 51.69759 0.86932 15092 ft 351 kts 264°
2026-05-05 22:04 51.69499 0.83058 14680 ft 343 kts 265°
2026-05-05 22:04 51.69250 0.79274 14297 ft 336 kts 264°
2026-05-05 22:04 51.68998 0.75551 13943 ft 332 kts 264°
2026-05-05 22:04 51.68743 0.71879 13571 ft 328 kts 264°
2026-05-05 22:05 51.68488 0.68257 13181 ft 324 kts 264°
2026-05-05 22:05 51.68240 0.64692 12758 ft 324 kts 264°
2026-05-05 22:05 51.67979 0.61083 12330 ft 325 kts 264°
2026-05-05 22:05 51.67715 0.57417 11946 ft 324 kts 264°
2026-05-05 22:06 51.67457 0.53851 11550 ft 325 kts 264°
2026-05-05 22:06 51.67191 0.50193 11140 ft 325 kts 264°
2026-05-05 22:06 51.66929 0.46596 10781 ft 320 kts 265°
2026-05-05 22:06 51.66677 0.43146 10581 ft 308 kts 265°
2026-05-05 22:07 51.66426 0.39784 10430 ft 296 kts 265°
2026-05-05 22:07 51.66186 0.36553 10294 ft 284 kts 265°
2026-05-05 22:07 51.65955 0.33422 10182 ft 272 kts 265°
2026-05-05 22:07 51.65738 0.30507 10072 ft 260 kts 265°
2026-05-05 22:08 51.65524 0.27644 9778 ft 256 kts 265°
2026-05-05 22:08 51.65312 0.24791 9359 ft 256 kts 265°
2026-05-05 22:08 51.65097 0.21945 8968 ft 255 kts 265°
2026-05-05 22:08 51.64883 0.19113 8598 ft 254 kts 265°
2026-05-05 22:09 51.64671 0.16296 8233 ft 253 kts 265°
2026-05-05 22:09 51.64309 0.13527 7875 ft 253 kts 256°
2026-05-05 22:09 51.63811 0.10821 7525 ft 252 kts 255°
2026-05-05 22:09 51.63334 0.08065 7196 ft 266 kts 261°
2026-05-05 22:10 51.63070 0.05065 6892 ft 270 kts 265°
2026-05-05 22:10 51.62866 0.02112 6580 ft 267 kts 266°
2026-05-05 22:10 51.62666 -0.00852 6285 ft 264 kts 265°
2026-05-05 22:10 51.62479 -0.03767 5949 ft 260 kts 265°
2026-05-05 22:11 51.62301 -0.06620 5767 ft 251 kts 266°
2026-05-05 22:11 51.62130 -0.09348 5702 ft 240 kts 266°
2026-05-05 22:11 51.61960 -0.12012 5680 ft 239 kts 266°
2026-05-05 22:11 51.61787 -0.14673 5674 ft 240 kts 266°
2026-05-05 22:12 51.61609 -0.17341 5828 ft 241 kts 264°
2026-05-05 22:12 51.61358 -0.19997 5633 ft 239 kts 264°
2026-05-05 22:12 51.61168 -0.22656 5418 ft 240 kts 266°
2026-05-05 22:12 51.60993 -0.25322 5172 ft 240 kts 266°
2026-05-05 22:13 51.60871 -0.27988 4921 ft 238 kts 270°
2026-05-05 22:13 51.60832 -0.30646 4613 ft 237 kts 270°
2026-05-05 22:13 51.60805 -0.33299 4353 ft 237 kts 270°
2026-05-05 22:13 51.60782 -0.35948 4093 ft 237 kts 271°
2026-05-05 22:14 51.60761 -0.38605 3835 ft 237 kts 270°
2026-05-05 22:14 51.60744 -0.41267 3580 ft 238 kts 270°
2026-05-05 22:14 51.60728 -0.43886 3323 ft 236 kts 271°
2026-05-05 22:14 51.60714 -0.46523 3003 ft 236 kts 271°
2026-05-05 22:15 51.60704 -0.49160 2687 ft 236 kts 270°
2026-05-05 22:15 51.60697 -0.51785 2489 ft 234 kts 271°
2026-05-05 22:15 51.60687 -0.54405 2465 ft 235 kts 270°
2026-05-05 22:15 51.60676 -0.57033 2477 ft 234 kts 270°
2026-05-05 22:16 51.60665 -0.59659 2482 ft 235 kts 270°
2026-05-05 22:16 51.60653 -0.62277 2489 ft 234 kts 270°
2026-05-05 22:16 51.60642 -0.64899 2490 ft 234 kts 270°
2026-05-05 22:16 51.60633 -0.67522 2486 ft 234 kts 270°
2026-05-05 22:17 51.60624 -0.70137 2487 ft 234 kts 270°
2026-05-05 22:17 51.60616 -0.72750 2488 ft 234 kts 270°
2026-05-05 22:17 51.60540 -0.75361 2481 ft 235 kts 258°
2026-05-05 22:17 51.59845 -0.77705 2476 ft 234 kts 229°
2026-05-05 22:18 51.58546 -0.79246 2481 ft 232 kts 200°
2026-05-05 22:18 51.56968 -0.79629 2485 ft 230 kts 172°
2026-05-05 22:18 51.55428 -0.79018 2495 ft 228 kts 160°
2026-05-05 22:18 51.53922 -0.78213 2490 ft 227 kts 160°
2026-05-05 22:19 51.52415 -0.77445 2492 ft 227 kts 161°
2026-05-05 22:19 51.50900 -0.76709 2491 ft 227 kts 161°
2026-05-05 22:19 51.49413 -0.75955 2486 ft 227 kts 156°
2026-05-05 22:19 51.48152 -0.74524 2478 ft 222 kts 126°
2026-05-05 22:20 51.47564 -0.72281 2490 ft 220 kts 96°
2026-05-05 22:20 51.47527 -0.69852 2494 ft 215 kts 86°
2026-05-05 22:20 51.47631 -0.67470 2438 ft 213 kts 85°
2026-05-05 22:20 51.47698 -0.65120 2208 ft 207 kts 89°
2026-05-05 22:21 51.47703 -0.62893 1934 ft 190 kts 89°
2026-05-05 22:21 51.47708 -0.60877 1732 ft 173 kts 89°
2026-05-05 22:21 51.47714 -0.59048 1509 ft 155 kts 89°
2026-05-05 22:21 51.47720 -0.57486 1256 ft 127 kts 90°
2026-05-05 22:22 51.47717 -0.56092 947 ft 126 kts 89°
2026-05-05 22:22 51.47721 -0.54688 837 ft 126 kts 89°
2026-05-05 22:22 51.47729 -0.53278 732 ft 127 kts 88°
2026-05-05 22:22 51.47734 -0.51877 565 ft 125 kts 88°
2026-05-05 22:23 51.47734 -0.50502 339 ft 125 kts 89°
2026-05-05 22:23 51.47748 -0.49104 200 ft 123 kts 88°
2026-05-05 22:23 51.47753 -0.47780 89 ft 110 kts 89°
2026-05-05 22:23 51.47751 -0.46926 96 ft 50 kts 88°
2026-05-05 22:24 51.47763 -0.46387 96 ft 39 kts 91°
2026-05-05 22:24 51.47698 -0.46137 94 ft 19 kts 137°
2026-05-05 22:24 51.47582 -0.46085 94 ft 22 kts 258°
2026-05-05 22:24 51.47591 -0.46333 94 ft 23 kts 270°
2026-05-05 22:25 51.47589 -0.46604 95 ft 25 kts 269°
2026-05-05 22:25 51.47584 -0.46895 95 ft 27 kts 269°
2026-05-05 22:25 51.47583 -0.47202 93 ft 28 kts 270°
2026-05-05 22:25 51.47583 -0.47524 94 ft 30 kts 270°
2026-05-05 22:26 51.47582 -0.47864 95 ft 30 kts 270°
2026-05-05 22:26 51.47581 -0.48192 97 ft 24 kts 269°
2026-05-05 22:26 51.47578 -0.48405 96 ft 20 kts 259°
2026-05-05 22:26 51.47496 -0.48476 90 ft 3 kts 171°
2026-05-05 22:27 51.47459 -0.48471 90 ft 7 kts 175°
2026-05-05 22:27 51.47406 -0.48487 93 ft 9 kts 227°
2026-05-05 22:27 51.47401 -0.48565 90 ft 0 kts 269°
2026-05-05 22:27 51.47401 -0.48586 90 ft 3 kts 269°
2026-05-05 22:28 51.47401 -0.48589 90 ft 0 kts 269°
2026-05-05 22:29 51.47401 -0.48588 90 ft 0 kts 269°